• Join FlightAware (Why Join?)
  • Login
  • US Flag 
04:28AM EDT


 

Airport Tracker/Info


-or-


 

Live Flight TrackerFlight Track Log ✈ FLG4115 ✈ 20-Apr-2013 ✈ KIAD - KDTW

Flight Track Log - Related Links

Times and Time Zones

All times are in EDT time to prevent confusion due to time zone crossing. See the FLG4115 flight status page for this flight to view local times or setup timezone preferences in your user account.

Time Position Orientation Groundspeed Altitude Reporting Facility
EDT Latitude Longitude Course Direction KTS MPH feet Rate Location/Type
09:46AM 39.0167 -77.4667 288° West 202 232 4,500  Level Potomac TRACON
09:47AM 39.1766 -77.5167 North  Level FlightAware Approximate
09:47AM 39.0833 -77.4833 349° North 255 293 7,700  Level Potomac TRACON
09:48AM 39.2617 -77.5321 349° North  Level FlightAware Approximate
09:48AM 39.1500 -77.4500 21° North 298 343 10,000  Level Potomac TRACON
09:49AM 39.3447 -77.5626 344° North  Level FlightAware Approximate
09:50AM 39.4288 -77.5833 North  Level FlightAware Approximate
09:50AM 39.2764 -77.4389 North 324 373 12,700  Level Washington Center
09:51AM 39.4701 -77.6635 288° West  Level FlightAware Approximate
09:51AM 39.3636 -77.4733 343° North 324 373 14,000  Level Washington Center
09:52AM 39.4078 -77.5686 301° West 297 342 16,100 1,920 Climbing Washington Center
09:53AM 39.4542 -77.6664 302° West 302 348 17,900 1,680 Climbing Washington Center
09:54AM 39.4961 -77.7672 298° West 317 365 19,500 1,440 Climbing Washington Center
09:55AM 39.5400 -77.8708 299° West 322 371 20,800 1,200 Climbing Washington Center
09:56AM 39.5733 -77.9822 291° West 322 371 22,000 1,140 Climbing Washington Center
09:57AM 39.6375 -78.1894 292° West 322 371 24,000 1,020 Climbing Cleveland Center
09:58AM 39.6733 -78.3067 292° West 348 400 24,900 900 Climbing Cleveland Center
09:59AM 39.7089 -78.4242 292° West 353 406 25,900 540 Climbing Cleveland Center
10:00AM 39.7425 -78.5419 290° West 353 406 26,000  Climbing Cleveland Center
10:01AM 39.7800 -78.6678 291° West 358 412 26,000  Level Cleveland Center
10:02AM 39.8114 -78.7914 288° West 358 412 26,000  Level Cleveland Center
10:03AM 39.8464 -78.9147 290° West 364 419 26,000  Level Cleveland Center
10:04AM 39.8836 -79.0275 293° West 370 426 26,000  Level Cleveland Center
10:05AM 39.9186 -79.1511 290° West 370 426 26,000  Level Cleveland Center
10:06AM 39.9533 -79.2778 290° West 370 426 26,000  Level Cleveland Center
10:07AM 39.9964 -79.3989 295° West 370 426 26,000  Level Cleveland Center
10:08AM 40.0539 -79.5117 304° West 375 432 26,000  Level Cleveland Center
10:09AM 40.1111 -79.6222 304° West 375 432 26,000  Level Cleveland Center
10:10AM 40.1683 -79.7328 304° West 375 432 26,000  Level Cleveland Center
10:11AM 40.2231 -79.8408 304° West 369 425 26,000  Level Cleveland Center
10:12AM 40.2781 -79.9517 303° West 369 425 26,000  Level Cleveland Center
10:13AM 40.3369 -80.0711 303° West 362 417 26,000  Level Cleveland Center
10:14AM 40.3917 -80.1825 303° West 362 417 26,000  Level Cleveland Center
10:15AM 40.4442 -80.2883 303° West 362 417 26,000  Level Cleveland Center
10:16AM 40.5028 -80.3919 307° West 362 417 26,000  Level Cleveland Center
10:17AM 40.5569 -80.5011 303° West 362 417 26,000  Level Cleveland Center
10:18AM 40.6092 -80.6131 302° West 357 411 26,000  Level Cleveland Center
10:19AM 40.6633 -80.7200 304° West 362 417 26,000  Level Cleveland Center
10:20AM 40.7172 -80.8242 304° West 357 411 26,000  Level Cleveland Center
10:21AM 40.7692 -80.9342 302° West 357 411 26,000  Level Cleveland Center
10:22AM 40.8231 -81.0414 304° West 352 405 26,000  Level Cleveland Center
10:23AM 40.8744 -81.1542 301° West 352 405 26,000  Level Cleveland Center
10:24AM 40.9261 -81.2619 302° West 352 405 26,000  Level Cleveland Center
10:25AM 40.9733 -81.3586 303° West 352 405 26,000  Level Cleveland Center
10:26AM 41.0247 -81.4667 302° West 352 405 26,000  Level Cleveland Center
10:27AM 41.0781 -81.5775 303° West 352 405 26,000  Level Cleveland Center
10:28AM 41.1375 -81.6942 304° West 352 405 26,000  Level Cleveland Center
10:29AM 41.1925 -81.8111 302° West 352 405 26,000  Level Cleveland Center
10:30AM 41.2475 -81.9253 303° West 363 418 26,000  Level Cleveland Center
10:31AM 41.3022 -82.0425 302° West 369 425 26,000  Level Cleveland Center
10:32AM 41.3569 -82.1600 302° West 369 425 26,000 -1,200 Level Cleveland Center
10:33AM 41.4200 -82.2694 308° West 375 432 23,700 -2,220 Descending Cleveland Center
10:34AM 41.4731 -82.3567 309° West 357 411 21,600 -2,340 Descending Cleveland Center
10:35AM 41.5319 -82.4583 308° West 352 405 19,100 -2,580 Descending Cleveland Center
10:36AM 41.5847 -82.5375 312° West 340 391 17,300 -2,340 Descending Cleveland Center
10:36AM 41.5906 -82.5572 292° West 346 398 16,800 -2,100 Descending Cleveland Center
10:37AM 41.6311 -82.6250 309° West 335 386 15,400 -1,800 Descending Cleveland Center
10:37AM 41.6433 -82.6422 314° West 341 392 15,000 -2,280 Descending Cleveland Center
10:38AM 41.6919 -82.7242 308° West 319 367 13,100 -2,340 Descending Cleveland Center
10:38AM 41.7019 -82.7442 304° West 331 381 12,700 -1,020 Descending Cleveland Center
10:39AM 41.7506 -82.8097 315° West 316 364 12,100 -720 Descending Cleveland Center
10:39AM 41.7628 -82.8269 314° West 321 369 12,000  Descending Cleveland Center
10:40AM 41.8158 -82.8900 318° Northwest 313 360 12,100  Climbing Cleveland Center
10:40AM 41.8281 -82.9072 314° West 310 357 12,000  Descending Cleveland Center
10:41AM 41.8808 -82.9678 320° Northwest 316 364 12,100  Climbing Cleveland Center
10:41AM 41.8931 -82.9850 314° West 310 357 12,000  Descending Cleveland Center
10:42AM 41.9519 -83.0542 319° Northwest 316 364 12,100  Climbing Cleveland Center
10:42AM 41.9581 -83.0628 314° West 315 362 12,000 -120 Descending Cleveland Center
10:43AM 42.0150 -83.1292 319° Northwest 294 338 12,000 -120 Level Cleveland Center
10:43AM 42.0211 -83.1350 325° Northwest 308 354 11,900 60 Descending Cleveland Center
10:44AM 42.0597 -83.1814 318° Northwest 220 253 12,100 60 Climbing Cleveland Center
10:44AM 42.0678 -83.1928 314° West 271 312 12,000 -720 Descending Cleveland Center
10:45AM 42.1086 -83.2281 327° Northwest 216 249 11,400 -1,140 Descending Cleveland Center
10:45AM 42.1231 -83.2428 323° Northwest 231 266 10,900 -1,380 Descending Cleveland Center
10:46AM 42.1386 -83.2531 334° Northwest 210 242 10,600 -1,200 Descending FAA TRACON SMA TRACON (SMA)
10:46AM 42.1558 -83.2583 347° North 224 258 10,200 -1,200 Descending FAA TRACON SMA TRACON (SMA)
10:46AM 42.1739 -83.2469 25° Northeast 240 276 9,800 -1,500 Descending FAA TRACON SMA TRACON (SMA)
10:47AM 42.1944 -83.2306 31° Northeast 233 268 9,200 -1,500 Descending FAA TRACON SMA TRACON (SMA)
10:47AM 42.2125 -83.2156 32° Northeast 235 270 8,800 -1,080 Descending FAA TRACON SMA TRACON (SMA)
10:47AM 42.2336 -83.1986 31° Northeast 231 266 8,500 -660 Descending FAA TRACON SMA TRACON (SMA)
10:48AM 42.2481 -83.1861 33° Northeast 208 239 8,400 -480 Descending FAA TRACON SMA TRACON (SMA)
10:48AM 42.2642 -83.1739 29° Northeast 205 236 8,200 -480 Descending FAA TRACON SMA TRACON (SMA)
10:48AM 42.2831 -83.1589 30° Northeast 202 232 8,100 -180 Descending FAA TRACON SMA TRACON (SMA)
10:49AM 42.2969 -83.1475 31° Northeast 201 231 8,100  Level FAA TRACON SMA TRACON (SMA)
10:49AM 42.3128 -83.1358 29° Northeast 202 232 8,100 -480 Level FAA TRACON SMA TRACON (SMA)
10:49AM 42.3314 -83.1214 30° Northeast 202 232 7,800 -1,080 Descending FAA TRACON SMA TRACON (SMA)
10:50AM 42.3464 -83.1097 30° Northeast 202 232 7,400 -1,440 Descending FAA TRACON SMA TRACON (SMA)
10:50AM 42.3611 -83.0992 28° Northeast 198 228 6,900 -1,500 Descending FAA TRACON SMA TRACON (SMA)
10:50AM 42.3758 -83.0894 26° Northeast 193 222 6,400 -1,200 Descending FAA TRACON SMA TRACON (SMA)
10:51AM 42.3942 -83.0867 North 173 199 6,100 -480 Descending FAA TRACON SMA TRACON (SMA)
10:51AM 42.4017 -83.1011 305° West 159 183 6,100 -180 Level FAA TRACON SMA TRACON (SMA)
10:51AM 42.4086 -83.1203 296° West 155 178 6,000 -780 Descending FAA TRACON SMA TRACON (SMA)
10:52AM 42.4142 -83.1358 296° West 156 180 5,600 -1,200 Descending FAA TRACON SMA TRACON (SMA)
10:52AM 42.4214 -83.1556 296° West 164 189 5,200 -780 Descending FAA TRACON SMA TRACON (SMA)
10:52AM 42.4200 -83.1747 264° West 170 196 5,100 -180 Descending FAA TRACON SMA TRACON (SMA)
10:53AM 42.4078 -83.1897 222° Southwest 174 200 5,100 -300 Level FAA TRACON SMA TRACON (SMA)
10:53AM 42.3969 -83.2028 222° Southwest 169 194 4,900 -780 Descending FAA TRACON SMA TRACON (SMA)
10:53AM 42.3808 -83.2136 206° Southwest 174 200 4,600 -900 Descending FAA TRACON SMA TRACON (SMA)
10:54AM 42.3683 -83.2239 211° Southwest 176 203 4,300 -1,080 Descending FAA TRACON SMA TRACON (SMA)
10:54AM 42.3533 -83.2361 211° Southwest 172 198 3,900 -1,080 Descending FAA TRACON SMA TRACON (SMA)
10:54AM 42.3389 -83.2475 210° Southwest 171 197 3,600 -1,080 Descending FAA TRACON SMA TRACON (SMA)
10:55AM 42.3258 -83.2564 207° Southwest 176 203 3,200 -1,080 Descending FAA TRACON SMA TRACON (SMA)
10:55AM 42.3103 -83.2675 208° Southwest 170 196 2,900 -900 Descending FAA TRACON SMA TRACON (SMA)
10:55AM 42.2983 -83.2758 207° Southwest 163 188 2,600 -900 Descending FAA TRACON SMA TRACON (SMA)